AC0YE Weather Reports


time (UTC)temp
F
wind
direction
speed
knots
gust
knots
rain 1hr
in
rain 24hr
in
rain mn
in
humidity
%
barometer
mb
20260504050516 54 0.0 0.0 0.00 0.00 0.00 58 1006.5
20260504050016 54 0.0 0.0 0.00 0.00 0.00 58 1006.6
20260504045516 54 0.0 0.9 0.00 0.00 0.00 58 1006.6
20260504045016 54 0.0 0.0 0.00 0.00 0.00 56 1006.6
20260504044516 55 0.0 0.0 0.00 0.00 0.00 55 1006.8
20260504044016 56 0.0 0.0 0.00 0.00 0.00 55 1006.9
20260504043536 56 0.0 0.0 0.00 0.00 0.00 54 1006.9
20260504043016 56 0.0 0.0 0.00 0.00 0.00 55 1006.8
20260504042516 56 0.0 0.0 0.00 0.00 0.00 53 1006.9
20260504042016 57 0.0 0.0 0.00 0.00 0.00 53 1007.0
20260504041516 57 0.0 0.0 0.00 0.00 0.00 52 1007.1
20260504041016 57 0.0 0.0 0.00 0.00 0.00 52 1007.0
20260504040536 57 0.0 0.0 0.00 0.00 0.00 51 1007.0
20260504040016 58 0.0 0.0 0.00 0.00 0.00 51 1007.1
20260504035516 58 0.0 0.0 0.00 0.00 0.00 50 1007.2
20260504035016 59 0.0 0.0 0.00 0.00 0.00 49 1007.2
20260504034516 59 0.0 0.0 0.00 0.00 0.00 48 1007.3
20260504034016 60 0.0 0.0 0.00 0.00 0.00 48 1007.3
20260504033516 60 0.0 0.9 0.00 0.00 0.00 47 1007.3
20260504033016 61 0.0 0.9 0.00 0.00 0.00 46 1007.4
20260504032556 61 0.0 0.0 0.00 0.00 0.00 46 1007.3
20260504032016 61 0.0 0.9 0.00 0.00 0.00 46 1007.4
20260504031516 61 0.0 0.9 0.00 0.00 0.00 45 1007.4
20260504031016 61 0.0 0.9 0.00 0.00 0.00 45 1007.4
20260504030516 62 0.0 0.9 0.00 0.00 0.00 45 1007.4
20260504030016 62 0.0 0.9 0.00 0.00 0.00 44 1007.2
20260504025516 62 0.0 0.9 0.00 0.00 0.00 44 1007.2
20260504025036 62 0.0 1.7 0.00 0.00 0.00 44 1007.2
20260504024516 62 0.0 0.0 0.00 0.00 0.00 44 1007.2
20260504024016 62 0.0 0.9 0.00 0.00 0.00 44 1007.2
20260504023536 62 0.0 0.9 0.00 0.00 0.00 44 1007.1
20260504023016 62 0.0 0.0 0.00 0.00 0.00 44 1007.1
20260504022556 63 0.0 0.0 0.00 0.00 0.00 45 1007.0
20260504022016 63 0.0 0.0 0.00 0.00 0.00 43 1007.0
20260504021516 63 0.0 0.0 0.00 0.00 0.00 42 1006.9
20260504021016 63 0.0 0.0 0.00 0.00 0.00 42 1006.8
20260504020516 64 0.0 0.0 0.00 0.00 0.00 41 1006.7
20260504020016 64 0.0 0.0 0.00 0.00 0.00 40 1006.8
20260504015537 65 0.0 0.0 0.00 0.00 0.00 39 1006.7
20260504015016 65 0.0 0.0 0.00 0.00 0.00 39 1006.6
20260504014516 65 0.0 0.0 0.00 0.00 0.00 39 1006.7
20260504014016 65 0.0 0.0 0.00 0.00 0.00 39 1006.6
20260504013516 66 0.0 0.0 0.00 0.00 0.00 38 1006.7
20260504013016 66 0.0 0.0 0.00 0.00 0.00 37 1006.6
20260504012536 67 0.0 0.0 0.00 0.00 0.00 36 1006.4
20260504012015 68 0.0 0.0 0.00 0.00 0.00 35 1006.4
20260504011516 69 0.0 1.7 0.00 0.00 0.00 34 1006.5
20260504011016 69 293 0.9 1.7 0.00 0.00 0.00 33 1006.4
20260504010515 70 293 0.9 1.7 0.00 0.00 0.00 32 1006.4
20260504010016 70 293 1.7 3.5 0.00 0.00 0.00 32 1006.3
20260504005516 71 293 1.7 3.5 0.00 0.00 0.00 32 1006.4
20260504005016 71 293 1.7 5.2 0.00 0.00 0.00 31 1006.4
20260504004515 72 293 2.6 5.2 0.00 0.00 0.00 30 1006.5
20260504004036 72 293 2.6 5.2 0.00 0.00 0.00 30 1006.4
20260504003515 73 293 1.7 4.3 0.00 0.00 0.00 29 1006.3
20260504003015 73 293 2.6 6.1 0.00 0.00 0.00 29 1006.3
20260504002516 73 293 2.6 5.2 0.00 0.00 0.00 29 1006.3
20260504002015 74 293 2.6 6.1 0.00 0.00 0.00 29 1006.4
20260504001515 74 315 2.6 3.5 0.00 0.00 0.00 29 1006.3
20260504001015 74 315 2.6 5.2 0.00 0.00 0.00 29 1006.3
20260504000515 74 315 2.6 6.1 0.00 0.00 0.00 29 1006.3
20260504000015 74 315 1.7 4.3 0.00 0.00 0.00 29 1006.3
20260503235516 74 293 2.6 6.1 0.00 0.00 0.00 29 1006.3
20260503235036 74 315 3.5 8.7 0.00 0.00 0.00 29 1006.3
20260503234535 75 315 3.5 8.7 0.00 0.00 0.00 29 1006.2
20260503234015 75 293 4.3 9.6 0.00 0.00 0.00 29 1006.2
20260503233516 75 293 5.2 9.6 0.00 0.00 0.00 28 1006.3
20260503233016 75 293 3.5 8.7 0.00 0.00 0.00 28 1006.3
20260503232535 75 293 3.5 8.7 0.00 0.00 0.00 29 1006.3
20260503232016 75 293 4.3 8.7 0.00 0.00 0.00 29 1006.3
20260503231516 75 293 3.5 7.0 0.00 0.00 0.00 30 1006.3
20260503231016 75 315 3.5 7.8 0.00 0.00 0.00 30 1006.4
20260503230516 75 315 3.5 7.0 0.00 0.00 0.00 29 1006.3
20260503230035 75 293 3.5 8.7 0.00 0.00 0.00 30 1006.3
20260503225515 75 293 5.2 11.3 0.00 0.00 0.00 29 1006.3
20260503225016 76 315 3.5 7.0 0.00 0.00 0.00 30 1006.2
20260503224515 76 293 4.3 12.2 0.00 0.00 0.00 30 1006.3
20260503224015 76 293 3.5 9.6 0.00 0.00 0.00 31 1006.2
20260503223516 76 315 4.3 9.6 0.00 0.00 0.00 31 1006.2
20260503223015 76 315 3.5 10.4 0.00 0.00 0.00 32 1006.1
20260503222536 76 315 3.5 7.8 0.00 0.00 0.00 31 1006.3
20260503222015 75 293 3.5 7.0 0.00 0.00 0.00 33 1006.1
20260503221515 75 293 4.3 9.6 0.00 0.00 0.00 30 1006.1
20260503221015 76 293 5.2 10.4 0.00 0.00 0.00 30 1006.1
20260503220516 76 315 5.2 11.3 0.00 0.00 0.00 29 1006.2
20260503220015 75 293 5.2 10.4 0.00 0.00 0.00 29 1006.1
20260503215555 76 293 4.3 10.4 0.00 0.00 0.00 30 1006.1
20260503215035 75 293 4.3 8.7 0.00 0.00 0.00 31 1006.0
20260503214515 76 315 5.2 12.2 0.00 0.00 0.00 34 1006.2
20260503214035 75 293 6.1 13.0 0.00 0.00 0.00 31 1006.0
20260503213515 76 293 5.2 16.5 0.00 0.00 0.00 33 1006.1
20260503213015 76 315 4.3 10.4 0.00 0.00 0.00 34 1006.1
20260503212515 76 293 3.5 7.8 0.00 0.00 0.00 32 1006.0
20260503212035 76 293 4.3 7.0 0.00 0.00 0.00 33 1006.1
20260503211515 76 315 5.2 12.2 0.00 0.00 0.00 31 1006.2
20260503211015 76 315 4.3 10.4 0.00 0.00 0.00 31 1006.3
20260503210535 76 315 2.6 5.2 0.00 0.00 0.00 36 1006.2
20260503210015 76 315 3.5 8.7 0.00 0.00 0.00 32 1006.2
20260503205515 76 293 5.2 10.4 0.00 0.00 0.00 33 1006.3
20260503205035 76 315 6.1 13.9 0.00 0.00 0.00 33 1006.3
20260503204515 76 293 4.3 8.7 0.00 0.00 0.00 33 1006.4
20260503204015 75 293 4.3 12.2 0.00 0.00 0.00 33 1006.4
20260503203515 75 293 7.0 14.8 0.00 0.00 0.00 31 1006.6
20260503203015 76 293 4.3 9.6 0.00 0.00 0.00 32 1006.5
20260503202515 75 293 6.1 11.3 0.00 0.00 0.00 34 1006.6
20260503202015 76 293 6.1 12.2 0.00 0.00 0.00 34 1006.5
20260503201517 76 293 4.3 10.4 0.00 0.00 0.00 32 1006.6
20260503201017 75 293 6.1 12.2 0.00 0.00 0.00 33 1006.6
20260503200517 75 293 5.2 10.4 0.00 0.00 0.00 35 1006.5
20260503200017 76 315 3.5 7.8 0.00 0.00 0.00 37 1006.6
20260503195517 75 293 5.2 13.0 0.00 0.00 0.00 37 1006.5
20260503195017 75 315 5.2 13.9 0.00 0.00 0.00 36 1006.7
20260503194517 75 293 3.5 11.3 0.00 0.00 0.00 38 1006.7
20260503194037 75 315 3.5 8.7 0.00 0.00 0.00 40 1006.7
20260503193517 75 248 5.2 9.6 0.00 0.00 0.00 37 1006.7
20260503193035 74 293 5.2 11.3 0.00 0.00 0.00 40 1006.7
20260503192517 74 293 4.3 11.3 0.00 0.00 0.00 41 1006.9
20260503192017 74 248 5.2 11.3 0.00 0.00 0.00 39 1006.9
20260503191517 73 248 4.3 10.4 0.00 0.00 0.00 39 1007.0
20260503191017 74 248 4.3 11.3 0.00 0.00 0.00 39 1007.1
20260503190517 74 315 2.6 6.1 0.00 0.00 0.00 43 1007.1
20260503190017 73 248 3.5 7.8 0.00 0.00 0.00 42 1007.3
20260503185517 73 270 3.5 7.8 0.00 0.00 0.00 42 1007.3
20260503185017 73 248 3.5 8.7 0.00 0.00 0.00 42 1007.4
20260503184517 73 270 3.5 7.0 0.00 0.00 0.00 42 1007.5
20260503184037 73 248 2.6 6.1 0.00 0.00 0.00 42 1007.5
20260503183517 72 225 4.3 7.0 0.00 0.00 0.00 43 1007.6
20260503183017 72 248 3.5 7.8 0.00 0.00 0.00 43 1007.5
20260503182517 71 248 3.5 8.7 0.00 0.00 0.00 43 1007.6
20260503182017 71 315 5.2 11.3 0.00 0.00 0.00 42 1007.6
20260503181517 71 293 4.3 10.4 0.00 0.00 0.00 43 1007.8
20260503181017 71 248 4.3 8.7 0.00 0.00 0.00 43 1007.8
20260503180537 71 248 2.6 6.1 0.00 0.00 0.00 45 1007.9
20260503180017 70 270 3.5 9.6 0.00 0.00 0.00 43 1007.9
20260503175517 70 248 3.5 8.7 0.00 0.00 0.00 43 1007.9
20260503175017 69 248 3.5 7.0 0.00 0.00 0.00 45 1008.1
20260503174517 69 225 3.5 7.8 0.00 0.00 0.00 45 1008.2
20260503174017 69 248 2.6 6.1 0.00 0.00 0.00 46 1008.3
20260503173517 68 248 4.3 9.6 0.00 0.00 0.00 45 1008.1
20260503173057 68 248 6.1 14.8 0.00 0.00 0.00 46 1008.2
20260503172517 68 225 4.3 8.7 0.00 0.00 0.00 46 1008.3
20260503172017 68 248 4.3 14.8 0.00 0.00 0.00 47 1008.4
20260503171517 67 225 3.5 7.8 0.00 0.00 0.00 46 1008.4
20260503171017 67 248 3.5 6.1 0.00 0.00 0.00 47 1008.6
20260503170517 66 248 2.6 7.8 0.00 0.00 0.00 47 1008.5
20260503150517 60 225 4.3 9.6 0.00 0.00 0.00 51 1009.5
20260503131016 53 158 3.5 7.0 0.00 0.00 0.00 59 1010.7
20260503130516 53 158 3.5 7.8 0.00 0.00 0.00 60 1010.8
20260503110516 54 158 0.9 3.5 0.00 0.00 0.00 55 1012.9
20260503081516 54 203 3.5 7.8 0.00 0.00 0.00 51 1014.4
20260503081036 54 203 3.5 11.3 0.00 0.00 0.00 51 1014.6
20260503080516 54 225 3.5 7.0 0.00 0.00 0.00 51 1014.6
20260503072516 53 203 4.3 9.6 0.00 0.00 0.00 53 1014.2
20260503072016 53 225 1.7 5.2 0.00 0.00 0.00 53 1014.1
20260503071516 53 225 1.7 5.2 0.00 0.00 0.00 52 1014.3
20260503071016 53 248 2.6 7.0 0.00 0.00 0.00 52 1014.2
20260503070516 53 225 1.7 3.5 0.00 0.00 0.00 52 1014.3